Prague, Czech Republic

10:54 PM CET on January 17, 2017 (GMT +0100)
Ruzyne

Weather History for LKPR - March, 2013

Change the Weather History Date:

Sunday, March 17, 2013

  Actual Average Record
Temperature  
Mean Temperature 30 °F -  
Max Temperature 40 °F 52 °F 71 °F (2012)
Min Temperature 19 °F 33 °F 19 °F (2013)
Degree Days  
Heating Degree Days 36    
Moisture  
Dew Point 18 °F    
Average Humidity 62    
Maximum Humidity 80    
Minimum Humidity 33    
Precipitation  
Precipitation 0.00 in 0.04 in - ()
Sea Level Pressure  
Sea Level Pressure 29.82 in    
Wind  
Wind Speed 11 mph ()    
Max Wind Speed 22 mph    
Max Gust Speed -    
Visibility 14.0 miles    
Events      
Averages and records for this station are not official NWS values.
T = Trace of Precipitation, MM = Missing Value Source: Averaged Metar Reports

Daily Weather History Graph

Daily Weather History Graph

Search for Another Location

Airport or City:

Trip Planner

Search our weather history database for the weather conditions in past years. The results will help you decide how hot, cold, wet, or windy it might be!

Date:

Astronomy

Mar. 17, 2013 Rise Set
Actual Time 6:12 AM CET 6:11 PM CET
Civil Twilight 5:39 AM CET 6:43 PM CET
Nautical Twilight 5:02 AM CET 7:21 PM CET
Astronomical Twilight 4:23 AM CET 8:00 PM CET
Moon 8:40 AM CET No Moon Set
Length of Visible Light 13h 03m
Length of Day
11h 58m
Waxing Crescent, 29% of the Moon is Illuminated
Mar 17
Waxing Crescent
Mar 19
First Quarter
Mar 27
Full
Apr 3
Last Quarter
Apr 10
New

Hourly Weather History & Observations

Time (CET) Temp. Windchill Dew Point Humidity Pressure Visibility Wind Dir Wind Speed Gust Speed Precip Events Conditions
12:00 AM 26.6 °F 18.2 °F 15.8 °F 64% 29.98 in - ESE 8.1 mph - N/A   Clear
12:30 AM 24.8 °F 16.1 °F 15.8 °F 69% 29.98 in - SE 8.1 mph - N/A   Clear
1:00 AM 23 °F - 15 °F 62% 30.07 in 16 mi ESE 8.9 mph - -   Clear
1:00 AM 23.0 °F 12.4 °F 15.8 °F 74% 29.98 in - ESE 10.4 mph - N/A   Clear
1:30 AM 24.8 °F 15.3 °F 15.8 °F 69% 29.98 in - SE 9.2 mph - N/A   Clear
2:00 AM 24.8 °F 15.3 °F 15.8 °F 69% 29.95 in - SE 9.2 mph - N/A   Clear
2:30 AM 24.8 °F 15.3 °F 15.8 °F 69% 29.95 in - SE 9.2 mph - N/A   Clear
3:00 AM 24.8 °F 14.0 °F 15.8 °F 69% 29.95 in - SE 11.5 mph - N/A   Clear
3:30 AM 24.8 °F 15.3 °F 15.8 °F 69% 29.95 in - SE 9.2 mph - N/A   Clear
4:00 AM 24.8 °F 16.1 °F 15.8 °F 69% 29.95 in - ESE 8.1 mph - N/A   Clear
4:30 AM 23.0 °F 14.7 °F 15.8 °F 74% 29.92 in - ESE 6.9 mph - N/A   Clear
5:00 AM 21.2 °F 13.6 °F 14.0 °F 74% 29.92 in - East 5.8 mph - N/A   Clear
5:30 AM 23.0 °F 13.1 °F 14.0 °F 68% 29.92 in - East 9.2 mph - N/A   Clear
6:00 AM 19.4 °F 8.6 °F 14.0 °F 80% 29.92 in - East 9.2 mph - N/A   Clear
6:30 AM 21.2 °F 10.9 °F 15.8 °F 80% 29.89 in - East 9.2 mph - N/A   Clear
7:00 AM 22 °F - 15 °F 65% 29.99 in 12 mi East 8.9 mph - -   Scattered Clouds
7:00 AM 23.0 °F 13.1 °F 15.8 °F 74% 29.89 in - East 9.2 mph - N/A   Clear
7:30 AM 21.2 °F 9.5 °F 15.8 °F 80% 29.89 in - East 11.5 mph - N/A   Clear
8:00 AM 24.8 °F 14.0 °F 15.8 °F 69% 29.89 in - East 11.5 mph - N/A   Clear
8:30 AM 24.8 °F 14.0 °F 17.6 °F 74% 29.89 in - East 11.5 mph - N/A   Clear
9:00 AM 26.6 °F 17.5 °F 15.8 °F 64% 29.89 in - East 9.2 mph - N/A   Clear
9:30 AM 26.6 °F 18.2 °F 17.6 °F 69% 29.89 in - East 8.1 mph - N/A   Clear
10:00 AM 28.4 °F 18.5 °F 17.6 °F 64% 29.86 in - East 11.5 mph - N/A   Clear
10:30 AM 32.0 °F 23.6 °F 19.4 °F 60% 29.86 in - East 10.4 mph - N/A   Clear
11:00 AM 35.6 °F 28.6 °F 19.4 °F 52% 29.83 in - ESE 9.2 mph - N/A   Clear
11:30 AM 37.4 °F 28.5 °F 19.4 °F 48% 29.83 in - SE 15.0 mph - N/A   Clear
12:00 PM 37.4 °F 28.5 °F 19.4 °F 48% 29.83 in - ESE 15.0 mph - N/A   Clear
12:30 PM 39.2 °F 30.2 °F 21.2 °F 49% 29.80 in - ESE 17.3 mph - N/A   Clear
1:00 PM 39 °F - 20 °F 33% 29.84 in 16 mi ESE 17.9 mph - -   Clear
1:00 PM 39.2 °F 30.2 °F 21.2 °F 49% 29.80 in - SE 17.3 mph - N/A   Clear
1:30 PM 39.2 °F 29.8 °F 19.4 °F 45% 29.77 in - ESE 18.4 mph - N/A   Clear
2:00 PM 39.2 °F 29.6 °F 21.2 °F 49% 29.77 in - SE 19.6 mph - N/A   Clear
2:30 PM 39.2 °F 29.6 °F 21.2 °F 49% 29.74 in - ESE 19.6 mph - N/A   Clear
3:00 PM 39.2 °F 29.6 °F 21.2 °F 49% 29.74 in - SE 19.6 mph - N/A   Clear
3:30 PM 39.2 °F 29.6 °F 21.2 °F 49% 29.71 in - ESE 19.6 mph - N/A   Clear
4:00 PM 39.2 °F 29.0 °F 21.2 °F 49% 29.71 in - SE 21.9 mph - N/A   Clear
4:30 PM 37.4 °F 26.9 °F 19.4 °F 48% 29.71 in - SE 20.7 mph - N/A   Clear
5:00 PM 35.6 °F 24.8 °F 19.4 °F 52% 29.71 in - SE 19.6 mph - N/A   Clear
5:30 PM 35.6 °F 24.8 °F 19.4 °F 52% 29.71 in - ESE 19.6 mph - N/A   Clear
6:00 PM 33.8 °F 22.5 °F 19.4 °F 56% 29.71 in - SE 19.6 mph - N/A   Clear
6:30 PM 33.8 °F 23.2 °F 19.4 °F 56% 29.71 in - SE 17.3 mph - N/A   Clear
7:00 PM 33 °F - 20 °F 45% 29.78 in 12 mi SE 13.4 mph - -   Scattered Clouds
7:00 PM 32.0 °F 20.8 °F 19.4 °F 60% 29.71 in - SE 17.3 mph - N/A   Clear
7:30 PM 32.0 °F 20.8 °F 19.4 °F 60% 29.71 in - ESE 17.3 mph - N/A   Clear
8:00 PM 32.0 °F 21.6 °F 19.4 °F 60% 29.71 in - ESE 15.0 mph - N/A   Clear
8:30 PM 32.0 °F 21.2 °F 21.2 °F 64% 29.71 in - ESE 16.1 mph - N/A   Clear
9:00 PM 32.0 °F 20.8 °F 21.2 °F 64% 29.68 in - ESE 17.3 mph - N/A   Clear
9:30 PM 30.2 °F 18.5 °F 21.2 °F 69% 29.68 in - ESE 17.3 mph - N/A   Clear
10:00 PM 30.2 °F 18.9 °F 21.2 °F 69% 29.65 in - ESE 16.1 mph - N/A   Clear
10:30 PM 30.2 °F 19.3 °F 21.2 °F 69% 29.65 in - ESE 15.0 mph - N/A   Clear
11:00 PM 28.4 °F 17.5 °F 21.2 °F 74% 29.65 in - ESE 13.8 mph - N/A   Clear
11:30 PM 30.2 °F 19.8 °F 21.2 °F 69% 29.65 in - ESE 13.8 mph - N/A   Clear